Starlink 33881

operational
NORAD ID: 63779 Int'l Des: 2025-091 Owner: SPXS Country: US Constellation: starlink
LEOCIRCULAR

关于 Starlink 33881

正在加载描述...

实时位置

正在加载3D地球...

即将过境

高度历史

Altitude vs Time

uPlot chart will show altitude changes over time

两行轨道根数

1 63779U 25091E 25350.81874672 .00018404 00000-0 67624-3 0 9992
2 63779 42.9994 160.9295 0001443 268.7994 91.2692 15.27598798 36223
Epoch: Dec 16, 2025 • Age: 25 hours

当前状态

高度 484.1 km
速度 7.62 km/s
星下点 -9.63°S, 107.44°E
发射日期 May 2, 2025
运行时间 0.6 years
类型 internet

技术详情

分类 Payload
质量 575.00 kg
干质量 530.00 kg
总质量 575.00 kg
长度 0.30 m
直径 4.10 m
跨度 29.00 m
形状 Box + pan
制造商 SPXS
平台类型 Starlink V2MO
阶段状态 In Orbit
所有者/国家 SPXS/US

大型星座

Loading constellations...